When you browse on this site, cookies collect data to enhance your experience and personalize the content and advertising you see.
Visit our Privacy Policy to learn more. By continuing to use the site, you agree to this use of cookies and data.
EN

Hourly Weather Chudey

Today, 6 August, Thursday

Time Temperature Precipitation Wind Pressure Humidity
00:00 +22°C° 0 mm 1 mps 725 mmHg 66%
01:00 +21°C° 0 mm 1 mps 725 mmHg 67%
02:00 +15°C° 0 mm 1 mps 725 mmHg 96%
03:00 +16°C° 0 mm 2 mps 724 mmHg 91%
04:00 +16°C° 0 mm 2 mps 725 mmHg 83%
05:00 +18°C° 0 mm 1 mps 725 mmHg 74%
06:00 +19°C° 0 mm 1 mps 725 mmHg 69%
07:00 +18°C° 0 mm 2 mps 726 mmHg 77%
08:00 +19°C° 0 mm 2 mps 726 mmHg 80%
09:00 +21°C° 0 mm 3 mps 727 mmHg 79%
10:00 +22°C° 0 mm 3 mps 727 mmHg 77%
11:00 +25°C° 0 mm 2 mps 727 mmHg 73%
12:00 +26°C° 0 mm 2 mps 728 mmHg 68%
13:00 +27°C° 0 mm 2 mps 728 mmHg 65%
14:00 +28°C° 0 mm 3 mps 728 mmHg 57%
15:00 +29°C° 0 mm 4 mps 728 mmHg 54%
16:00 +29°C° 0 mm 3 mps 727 mmHg 51%
17:00 +28°C° 0 mm 4 mps 727 mmHg 56%
18:00 +28°C° 0 mm 3 mps 727 mmHg 60%
19:00 +26°C° 0 mm 3 mps 727 mmHg 67%
20:00 +25°C° 0 mm 2 mps 727 mmHg 73%
21:00 +24°C° 0 mm 2 mps 727 mmHg 76%
22:00 +23°C° 0 mm 1 mps 727 mmHg 81%
23:00 +22°C° 0 mm 1 mps 728 mmHg 85%

Tomorrow, 7 August, Friday

Time Temperature Precipitation Wind Pressure Humidity
00:00 +20°C° 0 mm 0 mps 728 mmHg 88%
01:00 +22°C° 0 mm 1 mps 728 mmHg 89%
02:00 +21°C° 0 mm 1 mps 728 mmHg 90%
03:00 +19°C° 0 mm 2 mps 728 mmHg 93%
04:00 +19°C° 0 mm 2 mps 728 mmHg 93%
05:00 +19°C° 0 mm 2 mps 728 mmHg 95%
06:00 +19°C° 0 mm 2 mps 728 mmHg 95%
07:00 +19°C° 0 mm 2 mps 728 mmHg 97%
08:00 +21°C° 0 mm 2 mps 729 mmHg 97%
09:00 +23°C° 0 mm 2 mps 729 mmHg 95%
10:00 +24°C° 0 mm 2 mps 729 mmHg 92%
11:00 +25°C° 0 mm 2 mps 729 mmHg 92%
12:00 +26°C° 0 mm 3 mps 729 mmHg 89%
13:00 +27°C° 0 mm 3 mps 729 mmHg 80%
14:00 +27°C° 0.1 mm 3 mps 728 mmHg 80%
15:00 +26°C° 1.2 mm 2 mps 728 mmHg 84%
16:00 +25°C° 4.4 mm 2 mps 728 mmHg 90%
17:00 +25°C° 1.9 mm 2 mps 728 mmHg 89%
18:00 +25°C° 2.1 mm 2 mps 727 mmHg 92%
19:00 +25°C° 0 mm 3 mps 728 mmHg 90%
20:00 +24°C° 0 mm 2 mps 728 mmHg 94%
21:00 +23°C° 0 mm 1 mps 728 mmHg 96%
22:00 +21°C° 0 mm 2 mps 728 mmHg 100%
23:00 +22°C° 0 mm 1 mps 728 mmHg 100%

Day after tomorrow, 8 August, Saturday

Time Temperature Precipitation Wind Pressure Humidity
00:00 +21°C° 0 mm 2 mps 728 mmHg 100%
01:00 +20°C° 0 mm 2 mps 728 mmHg 100%
02:00 +20°C° 0 mm 2 mps 728 mmHg 100%
03:00 +21°C° 0 mm 1 mps 728 mmHg 100%
04:00 +21°C° 0 mm 1 mps 728 mmHg 100%
05:00 +20°C° 0 mm 2 mps 728 mmHg 100%
06:00 +20°C° 0 mm 1 mps 728 mmHg 100%
07:00 +19°C° 0 mm 2 mps 728 mmHg 100%
08:00 +19°C° 0 mm 2 mps 728 mmHg 100%
09:00 +19°C° 0 mm 2 mps 728 mmHg 100%
10:00 +20°C° 0 mm 2 mps 728 mmHg 98%
11:00 +21°C° 0 mm 3 mps 728 mmHg 95%
12:00 +22°C° 0 mm 3 mps 728 mmHg 91%
13:00 +22°C° 0.9 mm 3 mps 728 mmHg 90%
14:00 +23°C° 0 mm 4 mps 728 mmHg 86%
15:00 +24°C° 0 mm 3 mps 727 mmHg 81%
16:00 +24°C° 0 mm 3 mps 727 mmHg 79%
17:00 +22°C° 0.1 mm 3 mps 727 mmHg 91%
18:00 +22°C° 0.1 mm 3 mps 727 mmHg 86%
19:00 +23°C° 0 mm 2 mps 727 mmHg 89%
20:00 +20°C° 0.3 mm 2 mps 727 mmHg 99%
21:00 +21°C° 0.7 mm 1 mps 727 mmHg 100%
22:00 +20°C° 0 mm 1 mps 727 mmHg 100%
23:00 +19°C° 0 mm 2 mps 727 mmHg 100%

9 August, Sunday

Time Temperature Precipitation Wind Pressure Humidity
00:00 +20°C° 0 mm 1 mps 727 mmHg 100%
01:00 +18°C° 0 mm 2 mps 727 mmHg 100%
02:00 +19°C° 0 mm 1 mps 726 mmHg 100%
03:00 +19°C° 0 mm 1 mps 726 mmHg 100%
04:00 +19°C° 0 mm 1 mps 726 mmHg 100%
05:00 +18°C° 0 mm 1 mps 726 mmHg 100%
06:00 +18°C° 0 mm 1 mps 726 mmHg 100%
07:00 +18°C° 0 mm 2 mps 726 mmHg 100%
08:00 +18°C° 0 mm 2 mps 726 mmHg 100%
09:00 +19°C° 0 mm 2 mps 726 mmHg 99%
10:00 +20°C° 0 mm 2 mps 727 mmHg 95%
11:00 +20°C° 0 mm 2 mps 727 mmHg 93%
12:00 +21°C° 0 mm 2 mps 727 mmHg 88%
13:00 +23°C° 0 mm 2 mps 727 mmHg 86%
14:00 +23°C° 0 mm 2 mps 726 mmHg 86%
15:00 +23°C° 0.6 mm 2 mps 726 mmHg 92%
16:00 +23°C° 3.2 mm 2 mps 725 mmHg 94%
17:00 +22°C° 1.4 mm 1 mps 725 mmHg 91%
18:00 +21°C° 0.1 mm 2 mps 725 mmHg 93%
19:00 +22°C° 0.2 mm 1 mps 725 mmHg 95%
20:00 +21°C° 0.4 mm 1 mps 725 mmHg 99%
21:00 +21°C° 0 mm 1 mps 725 mmHg 99%
22:00 +20°C° 0 mm 1 mps 725 mmHg 100%
23:00 +20°C° 0 mm 1 mps 725 mmHg 99%

10 August, Monday

Time Temperature Precipitation Wind Pressure Humidity
00:00 +19°C° 0 mm 1 mps 725 mmHg 98%
01:00 +19°C° 0 mm 1 mps 725 mmHg 99%
02:00 +19°C° 0 mm 1 mps 725 mmHg 97%
03:00 +20°C° 0 mm 1 mps 725 mmHg 96%
04:00 +19°C° 0 mm 1 mps 724 mmHg 95%
05:00 +19°C° 0 mm 1 mps 725 mmHg 96%
06:00 +19°C° 0 mm 1 mps 724 mmHg 97%
07:00 +20°C° 0 mm 1 mps 725 mmHg 98%
08:00 +19°C° 0 mm 2 mps 725 mmHg 98%
09:00 +20°C° 0 mm 2 mps 725 mmHg 98%
10:00 +21°C° 0 mm 3 mps 726 mmHg 97%
11:00 +21°C° 0 mm 3 mps 725 mmHg 96%
12:00 +22°C° 0 mm 4 mps 725 mmHg 91%
13:00 +23°C° 0 mm 4 mps 725 mmHg 89%
14:00 +23°C° 0 mm 4 mps 725 mmHg 86%
15:00 +25°C° 0 mm 3 mps 724 mmHg 85%
16:00 +25°C° 0 mm 3 mps 724 mmHg 86%
17:00 +24°C° 0 mm 3 mps 724 mmHg 87%
18:00 +24°C° 0 mm 3 mps 724 mmHg 87%
19:00 +23°C° 0.4 mm 2 mps 724 mmHg 92%
20:00 +22°C° 0 mm 1 mps 724 mmHg 95%
21:00 +22°C° 0 mm 1 mps 724 mmHg 97%
22:00 +21°C° 0 mm 1 mps 724 mmHg 99%
23:00 +21°C° 0 mm 1 mps 724 mmHg 100%

11 August, Tuesday

Time Temperature Precipitation Wind Pressure Humidity
00:00 +19°C° 0 mm 2 mps 724 mmHg 100%
01:00 +19°C° 0 mm 2 mps 724 mmHg 100%
02:00 +19°C° 0 mm 2 mps 724 mmHg 100%
03:00 +20°C° 0 mm 1 mps 724 mmHg 100%
04:00 +19°C° 0 mm 2 mps 724 mmHg 100%
05:00 +19°C° 0 mm 1 mps 724 mmHg 100%
06:00 +18°C° 0 mm 2 mps 724 mmHg 100%
07:00 +18°C° 0 mm 3 mps 724 mmHg 100%
08:00 +18°C° 0 mm 3 mps 725 mmHg 99%
09:00 +19°C° 0 mm 3 mps 725 mmHg 97%
10:00 +19°C° 0 mm 3 mps 725 mmHg 98%
11:00 +19°C° 0 mm 2 mps 725 mmHg 97%
12:00 +19°C° 0 mm 3 mps 725 mmHg 99%
13:00 +20°C° 0 mm 4 mps 725 mmHg 96%
14:00 +20°C° 0 mm 4 mps 725 mmHg 97%
15:00 +23°C° 0 mm 2 mps 725 mmHg 91%
16:00 +22°C° 0 mm 3 mps 724 mmHg 91%
17:00 +23°C° 0 mm 2 mps 724 mmHg 90%
18:00 +23°C° 0 mm 2 mps 724 mmHg 88%
19:00 +22°C° 0 mm 1 mps 724 mmHg 94%
20:00 +22°C° 0 mm 1 mps 724 mmHg 97%
21:00 +19°C° 0 mm 0 mps 724 mmHg 99%
22:00 +21°C° 0 mm 1 mps 724 mmHg 99%
23:00 +19°C° 0 mm 2 mps 724 mmHg 99%
Show more